| time (UTC) | temp C | wind direction | speed KPH | gust KPH | rain 1hr cm | rain 24hr cm | rain mn cm | humidity % | barometer mb |
| 20260508110005 | 5 | 338 | 0.0 | 3.2 | 0.00 | 0.03 | 0.00 | 92 | 972.6 |
| 20260508104504 | 4 | 29 | 0.0 | 3.2 | 0.00 | 0.03 | 0.00 | 92 | 972.4 |
| 20260508103104 | 4 | 342 | 0.0 | 3.2 | 0.00 | 0.03 | 0.00 | 90 | 972.3 |
| 20260508101557 | 4 | 360 | 0.0 | 3.2 | 0.00 | 0.03 | 0.00 | 89 | 972.0 |
| 20260508100053 | 5 | 355 | 0.0 | 6.4 | 0.00 | 0.03 | 0.00 | 88 | 971.7 |
| 20260508094550 | 5 | 360 | 1.6 | 3.2 | 0.00 | 0.03 | 0.00 | 85 | 971.5 |
| 20260508093049 | 6 | 360 | 0.0 | 6.4 | 0.00 | 0.03 | 0.00 | 81 | 971.4 |
| 20260508091552 | 7 | 360 | 1.6 | 6.4 | 0.00 | 0.03 | 0.00 | 78 | 971.2 |
| 20260508090041 | 8 | 360 | 0.0 | 6.4 | 0.00 | 0.03 | 0.00 | 76 | 971.1 |
| 20260508084539 | 10 | 5 | 3.2 | 12.9 | 0.00 | 0.03 | 0.00 | 67 | 971.1 |
| 20260508083045 | 8 | 360 | 3.2 | 9.7 | 0.00 | 0.03 | 0.00 | 70 | 970.9 |
| 20260508081534 | 8 | 360 | 0.0 | 3.2 | 0.00 | 0.03 | 0.00 | 75 | 970.8 |
| 20260508080052 | 8 | 360 | 1.6 | 4.8 | 0.00 | 0.03 | 0.00 | 75 | 970.6 |
| 20260508074534 | 8 | 360 | 3.2 | 8.0 | 0.00 | 0.05 | 0.00 | 75 | 970.6 |
| 20260508073031 | 8 | 360 | 0.0 | 4.8 | 0.00 | 0.05 | 0.00 | 77 | 970.6 |
| 20260508071531 | 9 | 304 | 0.0 | 3.2 | 0.00 | 0.05 | 0.00 | 73 | 970.6 |
| 20260508070129 | 9 | 40 | 4.8 | 8.0 | 0.00 | 0.05 | 0.00 | 75 | 970.5 |
| 20260508064540 | 10 | 298 | 0.0 | 4.8 | 0.00 | 0.05 | 0.00 | 75 | 970.5 |
| 20260508063029 | 10 | 355 | 3.2 | 6.4 | 0.00 | 0.05 | 0.00 | 71 | 970.5 |
| 20260508061527 | 10 | 32 | 1.6 | 6.4 | 0.00 | 0.05 | 0.00 | 73 | 970.5 |
| 20260508060022 | 10 | 59 | 0.0 | 4.8 | 0.00 | 0.05 | 0.00 | 75 | 970.6 |
| 20260508054533 | 9 | 360 | 0.0 | 4.8 | 0.00 | 0.05 | 0.00 | 78 | 970.6 |
| 20260508053019 | 9 | 360 | 1.6 | 8.0 | 0.00 | 0.05 | 0.00 | 81 | 970.5 |
| 20260508051515 | 8 | 360 | 0.0 | 3.2 | 0.00 | 0.05 | 0.00 | 86 | 970.3 |
| 20260508050013 | 8 | 360 | 0.0 | 4.8 | 0.00 | 0.05 | 0.00 | 86 | 970.3 |
| 20260508044512 | 8 | 360 | 1.6 | 8.0 | 0.00 | 0.10 | 0.00 | 86 | 970.2 |
| 20260508043009 | 8 | 360 | 0.0 | 4.8 | 0.00 | 0.10 | 0.00 | 87 | 970.0 |
| 20260508041506 | 8 | 360 | 0.0 | 3.2 | 0.00 | 0.10 | 0.00 | 89 | 969.7 |
| 20260508040007 | 8 | 360 | 0.0 | 3.2 | 0.00 | 0.10 | 0.00 | 87 | 969.8 |
| 20260508034601 | 8 | 360 | 0.0 | 3.2 | 0.00 | 0.15 | 0.10 | 88 | 969.7 |
| 20260508034502 | 8 | 360 | 0.0 | 3.2 | 0.00 | 0.15 | 0.10 | 89 | 969.6 |
| 20260508033100 | 8 | 360 | 0.0 | 3.2 | 0.00 | 0.15 | 0.10 | 88 | 969.6 |
| 20260508031557 | 8 | 360 | 1.6 | 4.8 | 0.00 | 0.15 | 0.10 | 89 | 969.3 |
| 20260508030057 | 8 | 360 | 3.2 | 4.8 | 0.00 | 0.15 | 0.10 | 87 | 969.3 |
| 20260508024553 | 9 | 360 | 0.0 | 4.8 | 0.00 | 0.23 | 0.10 | 86 | 969.3 |
| 20260508023049 | 10 | 360 | 0.0 | 4.8 | 0.00 | 0.23 | 0.10 | 84 | 969.1 |
| 20260508021546 | 10 | 360 | 0.0 | 4.8 | 0.00 | 0.23 | 0.10 | 82 | 968.9 |
| 20260508020043 | 11 | 17 | 0.0 | 3.2 | 0.00 | 0.23 | 0.10 | 79 | 968.9 |
| 20260508014540 | 11 | 12 | 1.6 | 6.4 | 0.00 | 0.23 | 0.10 | 77 | 968.5 |
| 20260508013037 | 12 | 321 | 1.6 | 4.8 | 0.00 | 0.23 | 0.10 | 71 | 968.2 |
| 20260508011534 | 13 | 311 | 4.8 | 16.1 | 0.00 | 0.23 | 0.10 | 69 | 967.9 |
| 20260508010032 | 13 | 355 | 4.8 | 16.1 | 0.00 | 0.23 | 0.10 | 67 | 967.7 |
| 20260508004533 | 13 | 298 | 4.8 | 27.4 | 0.00 | 0.23 | 0.10 | 66 | 967.7 |
| 20260508003028 | 13 | 293 | 4.8 | 17.7 | 0.00 | 0.23 | 0.10 | 67 | 967.6 |
| 20260508001527 | 14 | 339 | 3.2 | 14.5 | 0.00 | 0.23 | 0.10 | 67 | 967.7 |
| 20260508000029 | 15 | 338 | 4.8 | 20.9 | 0.00 | 0.23 | 0.10 | 66 | 967.6 |
| 20260507234540 | 15 | 12 | 3.2 | 29.0 | 0.00 | 0.23 | 0.10 | 66 | 967.6 |
| 20260507233028 | 15 | 300 | 6.4 | 30.6 | 0.00 | 0.23 | 0.10 | 66 | 967.6 |
| 20260507231525 | 15 | 292 | 9.7 | 22.5 | 0.00 | 0.23 | 0.10 | 66 | 967.4 |
| 20260507230023 | 15 | 281 | 4.8 | 22.5 | 0.00 | 0.23 | 0.10 | 68 | 967.2 |
| 20260507224522 | 16 | 314 | 8.0 | 20.9 | 0.00 | 0.23 | 0.10 | 68 | 967.0 |
| 20260507223022 | 15 | 298 | 4.8 | 24.1 | 0.00 | 0.23 | 0.10 | 69 | 966.9 |
| 20260507221530 | 16 | 304 | 4.8 | 22.5 | 0.00 | 0.23 | 0.10 | 69 | 966.6 |
| 20260507220022 | 16 | 355 | 9.7 | 25.7 | 0.00 | 0.23 | 0.10 | 69 | 966.3 |
| 20260507214520 | 16 | 5 | 11.3 | 35.4 | 0.00 | 0.23 | 0.10 | 70 | 966.4 |
| 20260507213026 | 17 | 309 | 8.0 | 30.6 | 0.00 | 0.23 | 0.10 | 71 | 966.1 |
| 20260507211518 | 17 | 36 | 6.4 | 19.3 | 0.00 | 0.23 | 0.10 | 72 | 965.6 |
| 20260507210024 | 17 | 355 | 8.0 | 17.7 | 0.00 | 0.23 | 0.10 | 73 | 965.5 |
| 20260507204514 | 18 | 330 | 4.8 | 12.9 | 0.00 | 0.23 | 0.10 | 73 | 965.2 |
| 20260507203016 | 18 | 9 | 4.8 | 17.7 | 0.00 | 0.23 | 0.10 | 72 | 965.3 |
| 20260507201513 | 18 | 307 | 4.8 | 17.7 | 0.00 | 0.23 | 0.10 | 73 | 965.1 |
| 20260507200011 | 18 | 29 | 6.4 | 17.7 | 0.00 | 0.23 | 0.10 | 74 | 965.3 |
| 20260507194520 | 17 | 13 | 4.8 | 14.5 | 0.00 | 0.23 | 0.10 | 80 | 965.4 |
| 20260507193008 | 16 | 63 | 4.8 | 12.9 | 0.00 | 0.23 | 0.10 | 80 | 965.7 |
| 20260507191505 | 16 | 131 | 3.2 | 12.9 | 0.00 | 0.23 | 0.10 | 82 | 965.8 |
| 20260507190116 | 15 | 71 | 6.4 | 16.1 | 0.00 | 0.23 | 0.10 | 85 | 965.9 |
| 20260507184504 | 15 | 117 | 8.0 | 14.5 | 0.00 | 0.23 | 0.10 | 87 | 966.2 |
| 20260507183002 | 13 | 16 | 1.6 | 9.7 | 0.00 | 0.23 | 0.10 | 88 | 966.3 |
| 20260507181501 | 13 | 72 | 6.4 | 16.1 | 0.00 | 0.23 | 0.10 | 87 | 966.4 |
| 20260507180106 | 14 | 163 | 3.2 | 16.1 | 0.00 | 0.23 | 0.10 | 86 | 966.4 |
| 20260507174604 | 15 | 15 | 3.2 | 12.9 | 0.00 | 0.23 | 0.10 | 86 | 966.1 |
| 20260507173108 | 15 | 19 | 4.8 | 14.5 | 0.00 | 0.23 | 0.10 | 85 | 966.1 |
| 20260507171554 | 15 | 346 | 4.8 | 14.5 | 0.00 | 0.23 | 0.10 | 84 | 966.3 |
| 20260507170056 | 16 | 254 | 4.8 | 11.3 | 0.00 | 0.23 | 0.10 | 84 | 966.1 |
| 20260507164624 | 16 | 341 | 4.8 | 14.5 | 0.00 | 0.23 | 0.10 | 84 | 966.1 |
| 20260507163055 | 16 | 139 | 4.8 | 14.5 | 0.00 | 0.23 | 0.10 | 84 | 965.9 |
| 20260507161556 | 16 | 327 | 3.2 | 12.9 | 0.00 | 0.23 | 0.10 | 85 | 966.0 |
| 20260507160049 | 17 | 350 | 6.4 | 16.1 | 0.00 | 0.23 | 0.10 | 84 | 966.1 |
| 20260507154546 | 17 | 335 | 4.8 | 11.3 | 0.00 | 0.23 | 0.10 | 86 | 966.0 |
| 20260507153046 | 17 | 68 | 3.2 | 14.5 | 0.00 | 0.23 | 0.10 | 88 | 966.1 |
| 20260507151546 | 17 | 332 | 3.2 | 9.7 | 0.00 | 0.23 | 0.10 | 87 | 966.1 |
| 20260507150046 | 16 | 104 | 3.2 | 11.3 | 0.00 | 0.23 | 0.10 | 88 | 966.1 |
| 20260507144541 | 16 | 45 | 3.2 | 6.4 | 0.00 | 0.23 | 0.10 | 90 | 966.1 |
| 20260507143045 | 16 | 91 | 0.0 | 8.0 | 0.00 | 0.23 | 0.10 | 93 | 966.0 |
| 20260507141539 | 16 | 44 | 3.2 | 9.7 | 0.00 | 0.23 | 0.10 | 95 | 966.0 |
| 20260507140042 | 16 | 97 | 0.0 | 3.2 | 0.00 | 0.23 | 0.10 | 98 | 966.0 |
| 20260507134539 | 16 | 98 | 3.2 | 4.8 | 0.00 | 0.23 | 0.10 | 98 | 965.9 |
| 20260507133039 | 15 | 94 | 1.6 | 6.4 | 0.00 | 0.23 | 0.10 | 99 | 965.8 |
| 20260507131539 | 15 | 76 | 1.6 | 4.8 | 0.03 | 0.23 | 0.10 | 99 | 966.1 |
| 20260507130040 | 15 | 42 | 0.0 | 8.0 | 0.03 | 0.23 | 0.10 | 99 | 966.4 |
| 20260507124538 | 15 | 39 | 0.0 | 12.9 | 0.03 | 0.23 | 0.10 | 99 | 966.8 |
| 20260507123031 | 16 | 298 | 1.6 | 4.8 | 0.03 | 0.23 | 0.10 | 100 | 966.8 |
| 20260507121530 | 16 | 285 | 0.0 | 4.8 | 0.00 | 0.20 | 0.08 | 100 | 966.9 |
| 20260507120029 | 16 | 284 | 0.0 | 3.2 | 0.00 | 0.20 | 0.08 | 100 | 967.1 |
| 20260507114546 | 16 | 310 | 0.0 | 1.6 | 0.00 | 0.20 | 0.08 | 100 | 966.5 |
| 20260507113050 | 16 | 266 | 0.0 | 1.6 | 0.00 | 0.20 | 0.08 | 100 | 966.1 |
| 20260507111536 | 16 | 276 | 1.6 | 4.8 | 0.00 | 0.20 | 0.08 | 100 | 966.3 |